Location: Rodson Ranch
(38.7188°N, 119.3202°W)
Time: 12:38:18
(UTC+00:00)

Cosmos 1758 Rocket - Pass Details

Date: 29 October 2020
Orbit: 601 x 637 km, 82.5° (Epoch: 01 December)

Event Time Altitude Azimuth Distance (km) Brightness Sun altitude
Rises 13:47:36 0° 179° (S) 2,921 7.2 -7.3°
Reaches altitude 10° 13:49:50 10° 176° (S) 2,017 6.4 -6.8°
Maximum altitude 13:54:16 66° 95° (E) 696 4.1 -6.0°
Drops below altitude 10° 13:58:44 10° 13° (NNE) 2,025 6.2 -5.2°
Sets 14:00:59 0° 11° (N) 2,934 7.0 -4.7°
